sat.trackr.live / text

‹ back to catalog

STARLINK-4095

NORAD 53170 · 2022-083AQ

PAYLOAD ACTIVE UNKNOWN

§ Identity

Operator
Country
US
Launch date
2022-07-17
Launch site
AFETR
Launch vehicle
Mass (kg)
RCS (m²)

Purposes: comms

External: N2YO · Heavens-Above · Gunter

§ Orbital elements

Epoch: 2026-09-20T04:00:03.000096Z

Period
94.43 min
Inclination
53.1585°
Eccentricity
0.0001942
Mean motion
15.24863056 rev/d
Perigee alt
489.9 km
Apogee alt
492.5 km
Semi-major
6,869.3 km
B*
3.2057e-3
RAAN
4.6731°
Arg perigee
95.4955°
Mean anomaly
86.7982°
Rev number
583

§ Raw data

STARLINK-40951 53170U 22083AQ  26263.16670139  .00081263  00000+0  32057-2 0  99912 53170  53.1585   4.6731 0001942  95.4955  86.7982 15.24863056  5835

JSON: /api/v1/satellites/53170 · /tle

For live sub-satellite position, see the globe view (requires WebGL).

§ Visibility from observer

Set your observer location to see the next 7 days of passes ≥ 10°. The values pass through the URL so the page stays shareable.

No JS? Fill the form by hand. The geolocation button needs JavaScript.